Location: Piotrkow Trybunalski
(51.4000°N, 19.6830°E)
Time: 15:32:52
(UTC+01:00)

Vanguard 2 - Pass Details

Date: 09 February 2023
Orbit: 553 x 2927 km, 32.9° (Epoch: 24 March)

Event Time Altitude Azimuth Distance (km) Brightness Sun altitude
Rises 19:18:52 0° 212° (SSW) 4,500 11.8 -24.3°
Reaches altitude 10° 19:22:16 10° 199° (SSW) 3,871 11.2 -24.8°
Maximum altitude 19:30:16 24° 150° (SSE) 3,569 10.5 -26.1°
Enters shadow 19:31:34 24° 142° (SE) 3,690 10.5 -26.3°
Drops below altitude 10° 19:41:00 10° 105° (ESE) 5,341 - -27.7°
Sets 19:46:48 0° 95° (E) 6,610 - -28.6°
